[[{"header":{"parameterUnit":"m.s-1","parameterCategory":1,"la1":30.2991,"la2":30.254,"lo1":-89.0895,"lo2":-89.0444,"dy":0.0017,"dx":0.0017,"nx":28,"ny":28,"refTime":"2024-03-15T09:00:00:Z","depth":0,"parameterNumber":2,"parameterNumberName":"U-component_of_WINDS"},"data":[0,0,0,0,0,0,0,0,0,0,0,0,0,0,0,0,0,0,0,0,0,0,0,0,0,0,0,0,0,0,0,0,0,0,0,0,0,0,0,0,0,0,0,0,0,0,0,0,0,0,0,0,0,0,0,0,0,0,-1.6067,-1.6066,0,-1.6026,-1.6026,-1.6025,-1.6011,-1.6011,-1.6011,-1.6011,-1.5965,-1.5964,-1.5962,0,0,0,0,0,0,0,0,0,0,0,0,0,-1.6127,-1.6126,-1.6067,-1.6066,-1.6066,-1.6026,-1.6026,-1.6025,-1.6011,-1.6011,-1.6011,-1.6011,-1.5965,-1.5964,-1.5962,0,0,0,0,0,0,0,0,0,0,0,0,0,-1.6095,-1.6126,-1.6067,-1.6054,-1.6052,-1.6026,-1.6026,-1.6025,-1.6011,-1.6011,-1.6011,-1.6011,-1.5966,-1.5964,-1.5962,-1.5944,0,0,-1.5956,-1.5955,0,0,0,0,0,0,0,0,-1.6097,-1.6093,-1.6056,-1.6055,-1.6053,-1.6024,-1.603,-1.5998,-1.6011,-1.6026,-1.6011,-1.6011,-1.5984,-1.598,-1.5972,-1.5942,-1.594,-1.5955,-1.5954,-1.5953,-1.5953,0,0,0,0,0,0,0,-1.6099,-1.6095,-1.6051,-1.6056,-1.6054,-1.6049,-1.6044,-1.6024,-1.6004,-1.6025,-1.6024,-1.6019,-1.5983,-1.5974,-1.5971,-1.5939,-1.5955,-1.5954,-1.5952,-1.5952,-1.5891,-1.589,0,0,0,0,0,0,-1.6104,-1.6097,-1.6052,-1.6049,-1.6076,-1.6047,-1.6043,-1.6033,-1.6004,-1.6,-1.6019,-1.6019,-1.5978,-1.5973,-1.5969,-1.5946,-1.5953,-1.5951,-1.595,-1.5891,-1.5891,-1.589,0,0,0,0,0,0,-1.6106,-1.6101,-1.6054,-1.6073,-1.6066,-1.6046,-1.6035,-1.6032,-1.6023,-1.6,-1.5996,-1.6014,-1.5978,-1.5972,-1.595,-1.5944,-1.595,-1.5948,-1.5892,-1.5891,-1.589,-1.5899,0,0,0,0,0,0,-1.6108,-1.6101,-1.6096,-1.6073,-1.6065,-1.6037,-1.6035,-1.6031,-1.602,-1.6019,-1.5994,-1.599,-1.5977,-1.5954,-1.5948,-1.5941,-1.5947,-1.5892,-1.5891,-1.5891,-1.5899,-1.5899,-1.5898,0,0,0,0,0,-1.611,-1.6099,-1.6095,-1.609,-1.6058,-1.6037,-1.6032,-1.6019,-1.602,-1.6013,-1.5998,-1.5991,-1.5946,-1.5952,-1.5946,-1.5937,-1.5892,-1.5891,-1.5891,-1.5899,-1.5899,-1.5898,0,0,0,0,0,0,-1.612,-1.6096,-1.6091,-1.6073,-1.6057,-1.6034,-1.6026,-1.6019,-1.6002,-1.6001,-1.5984,-1.5979,-1.5958,-1.5945,-1.5953,-1.5918,-1.5918,-1.5916,-1.5927,-1.5926,-1.5926,-1.5929,-1.5945,0,0,0,0,0,-1.6121,-1.6107,-1.6086,-1.6071,-1.6064,-1.6046,-1.6036,-1.6027,-1.601,-1.6002,-1.5986,-1.5968,-1.5949,-1.5937,-1.5919,-1.5897,-1.589,-1.5889,-1.5888,-1.5888,-1.5886,-1.5872,-1.587,-1.5887,-1.5887,-1.5887,0,0,-1.6121,-1.6106,-1.6098,-1.6073,-1.606,-1.6044,-1.6041,-1.6024,-1.6012,-1.5999,-1.5978,-1.5965,-1.5943,-1.5921,-1.5911,-1.591,-1.588,-1.5887,-1.5887,-1.5885,-1.5871,-1.5869,-1.5868,-1.5887,-1.5887,-1.5887,0,0,-1.6114,-1.6102,-1.6088,-1.6075,-1.6055,-1.6043,-1.6039,-1.6017,-1.6008,-1.5987,-1.5977,-1.5961,-1.593,-1.5914,-1.5902,-1.5888,-1.588,-1.5882,-1.588,-1.5866,-1.5865,-1.5863,-1.5857,-1.5855,-1.588,-1.588,-1.588,0,-1.6116,-1.6094,-1.6081,-1.6066,-1.6054,-1.6043,-1.6028,-1.6015,-1.599,-1.5981,-1.5981,-1.5941,-1.5926,-1.5899,-1.5896,-1.5887,-1.5881,-1.5884,-1.5866,-1.5865,-1.5863,-1.5857,-1.5854,-1.5881,-1.5881,-1.5881,-1.588,0,-1.6097,-1.6082,-1.6073,-1.605,-1.6037,-1.6022,-1.6005,-1.5994,-1.5985,-1.5973,-1.595,-1.5931,-1.5908,-1.5901,-1.5893,-1.5873,-1.5873,-1.587,-1.587,-1.5862,-1.5855,-1.5853,-1.5881,-1.5881,-1.5881,-1.5881,0,0,-1.6096,-1.6066,-1.6062,-1.6051,-1.6028,-1.6014,-1.5998,-1.5976,-1.5966,-1.5948,-1.5933,-1.5906,-1.5903,-1.5889,-1.5879,-1.5867,-1.5854,-1.5865,-1.5864,-1.5862,-1.5829,-1.5831,-1.5828,-1.5849,-1.5849,-1.5849,-1.583,0,-1.6085,-1.6056,-1.6043,-1.602,-1.6004,-1.5992,-1.5977,-1.596,-1.5948,-1.5931,-1.5917,-1.5898,-1.5896,-1.5887,-1.5875,-1.5859,-1.5847,-1.586,-1.5832,-1.5832,-1.5838,-1.5825,-1.5827,-1.5811,-1.5828,-1.5827,-1.5827,0,-1.6068,-1.6051,-1.6026,-1.6003,-1.5996,-1.5983,-1.5962,-1.5947,-1.5926,-1.5918,-1.5902,-1.5892,-1.5872,-1.5874,-1.5844,-1.5853,-1.5841,-1.5831,-1.583,-1.5826,-1.5828,-1.5819,-1.5806,-1.5803,-1.5823,-1.5823,-1.5824,0,-1.6068,-1.6039,-1.602,-1.6011,-1.5984,-1.5975,-1.5963,-1.5943,-1.593,-1.5911,-1.5902,-1.588,-1.5868,-1.585,-1.5834,-1.5837,-1.5805,-1.5806,-1.5796,-1.5796,-1.5789,-1.579,-1.5772,-1.5783,-1.5783,-1.5783,-1.5783,0,-1.6057,-1.6041,-1.602,-1.6008,-1.5989,-1.5974,-1.5956,-1.5943,-1.5925,-1.5909,-1.5897,-1.5882,-1.5862,-1.5843,-1.583,-1.5806,-1.5801,-1.5792,-1.5788,-1.5792,-1.5793,-1.5784,-1.5784,-1.5783,-1.5783,-1.5783,-1.5783,0,-1.6054,-1.6039,-1.6017,-1.5993,-1.5987,-1.5974,-1.5953,-1.594,-1.5927,-1.5906,-1.59,-1.5879,-1.5856,-1.5838,-1.5808,-1.5799,-1.5774,-1.5771,-1.5781,-1.5779,-1.577,-1.577,-1.5744,-1.5739,-1.5755,-1.5755,-1.5755,0,-1.6047,-1.6035,-1.601,-1.5999,-1.5988,-1.597,-1.5957,-1.5941,-1.5928,-1.5903,-1.5892,-1.5869,-1.585,-1.5814,-1.5794,-1.577,-1.5766,-1.5758,-1.5762,-1.5766,-1.5764,-1.5764,-1.5762,-1.5757,-1.5757,-1.5757,-1.5757,0,-1.6036,-1.6029,-1.6012,-1.5992,-1.5977,-1.596,-1.5942,-1.5933,-1.5914,-1.5899,-1.5876,-1.5861,-1.5831,-1.5807,-1.5782,-1.5767,-1.5758,-1.5756,-1.5752,-1.5756,-1.5762,-1.5757,-1.5779,-1.5757,-1.5757,-1.5757,-1.5757,-1.5757,-1.603,-1.6019,-1.5999,-1.598,-1.5965,-1.5948,-1.5934,-1.5919,-1.5901,-1.5876,-1.5867,-1.5843,-1.582,-1.5785,-1.577,-1.575,-1.5749,-1.5744,-1.5742,-1.5741,-1.5741,-1.5766,-1.5745,-1.5745,-1.5745,-1.5745,-1.5745,0,-1.6018,-1.6005,-1.5987,-1.5963,-1.5947,-1.5942,-1.5921,-1.5908,-1.5888,-1.5868,-1.5849,-1.5822,-1.5799,-1.5777,-1.5752,-1.5739,-1.5734,-1.5733,-1.5733,-1.573,-1.5744,-1.5749,-1.5738,-1.5738,-1.5738,-1.5738,-1.5738,-1.5738,-1.601,-1.5989,-1.5979,-1.595,-1.5936,-1.5914,-1.5903,-1.5886,-1.5871,-1.5841,-1.5822,-1.5809,-1.5788,-1.5761,-1.5738,-1.5732,-1.5722,-1.5722,-1.5715,-1.5728,-1.5729,-1.573,-1.5735,-1.5721,-1.5721,-1.5702,-1.5702,-1.5702]},{"header":{"parameterUnit":"m.s-1","parameterCategory":1,"la1":30.2991,"la2":30.254,"lo1":-89.0895,"lo2":-89.0444,"dy":0.0017,"dx":0.0017,"nx":28,"ny":28,"refTime":"2024-03-15T09:00:00:Z","depth":0,"parameterNumber":3,"parameterNumberName":"V-component_of_WINDS"},"data":[0,0,0,0,0,0,0,0,0,0,0,0,0,0,0,0,0,0,0,0,0,0,0,0,0,0,0,0,0,0,0,0,0,0,0,0,0,0,0,0,0,0,0,0,0,0,0,0,0,0,0,0,0,0,0,0,0,0,1.9008,1.9009,0,1.9072,1.9073,1.9073,1.9097,1.9097,1.9097,1.9096,1.9158,1.916,1.9162,0,0,0,0,0,0,0,0,0,0,0,0,0,1.8904,1.8906,1.9008,1.9009,1.901,1.9072,1.9073,1.9074,1.9097,1.9097,1.9097,1.9096,1.9157,1.916,1.9162,0,0,0,0,0,0,0,0,0,0,0,0,0,1.8956,1.8906,1.9008,1.9029,1.9032,1.9072,1.9073,1.9074,1.9097,1.9097,1.9096,1.9096,1.9157,1.9159,1.9162,1.9185,0,0,1.917,1.9172,0,0,0,0,0,0,0,0,1.8953,1.896,1.9025,1.9028,1.9031,1.9076,1.9058,1.9111,1.9097,1.9072,1.9096,1.9096,1.9131,1.9136,1.9148,1.9188,1.919,1.9171,1.9172,1.9173,1.9174,0,0,0,0,0,0,0,1.895,1.8958,1.9033,1.9026,1.9029,1.9034,1.9041,1.9069,1.9102,1.9074,1.9076,1.9084,1.9132,1.9145,1.915,1.9191,1.9171,1.9173,1.9175,1.9176,1.9253,1.9253,0,0,0,0,0,0,1.8943,1.8954,1.9031,1.9035,1.8991,1.9036,1.9044,1.9062,1.9102,1.9108,1.9084,1.9084,1.9141,1.9147,1.9152,1.9182,1.9173,1.9176,1.9178,1.9252,1.9253,1.9253,0,0,0,0,0,0,1.8941,1.895,1.9029,1.8995,1.9006,1.9039,1.9058,1.9063,1.9077,1.9109,1.9115,1.9091,1.9141,1.9148,1.9177,1.9184,1.9177,1.918,1.9252,1.9252,1.9253,1.9242,0,0,0,0,0,0,1.8938,1.8949,1.8959,1.8996,1.9008,1.9054,1.9058,1.9065,1.9082,1.9083,1.9118,1.9123,1.9141,1.9173,1.918,1.9188,1.9182,1.9251,1.9252,1.9253,1.9242,1.9242,1.9242,0,0,0,0,0,1.8934,1.8952,1.8959,1.8968,1.9021,1.9054,1.9061,1.9082,1.9082,1.9092,1.9113,1.9122,1.9182,1.9175,1.9183,1.9193,1.9251,1.9252,1.9253,1.9241,1.9242,1.9242,0,0,0,0,0,0,1.8914,1.8957,1.8965,1.8996,1.9021,1.9058,1.9071,1.9082,1.9107,1.9107,1.9131,1.9138,1.9165,1.9182,1.9173,1.9217,1.9217,1.922,1.9206,1.9206,1.9207,1.9203,1.9184,0,0,0,0,0,1.8913,1.8938,1.8974,1.8997,1.901,1.9038,1.9053,1.9068,1.9094,1.9105,1.9128,1.9152,1.9176,1.9192,1.9216,1.9243,1.9251,1.9254,1.9254,1.9254,1.9256,1.9272,1.9274,1.9256,1.9256,1.9256,0,0,1.8912,1.8939,1.8952,1.8994,1.9015,1.9039,1.9047,1.9072,1.909,1.9108,1.9137,1.9155,1.9183,1.9212,1.9225,1.9226,1.9263,1.9255,1.9255,1.9257,1.9273,1.9275,1.9277,1.9257,1.9257,1.9257,0,0,1.8922,1.8945,1.8968,1.8989,1.9021,1.904,1.9045,1.908,1.9093,1.9123,1.9137,1.9158,1.9199,1.9219,1.9235,1.9252,1.9262,1.9259,1.9261,1.9276,1.9278,1.9279,1.9286,1.9288,1.9261,1.9261,1.9261,0,1.8916,1.8955,1.8977,1.9002,1.902,1.9038,1.9061,1.908,1.9118,1.913,1.913,1.9183,1.9203,1.9237,1.9241,1.9253,1.926,1.9256,1.9276,1.9278,1.9279,1.9286,1.9289,1.9261,1.9261,1.9261,1.9261,0,1.8946,1.8972,1.8986,1.9024,1.9043,1.9067,1.9092,1.9108,1.9121,1.9139,1.9169,1.9194,1.9224,1.9232,1.9244,1.9268,1.9267,1.9271,1.9272,1.928,1.9287,1.929,1.926,1.926,1.926,1.926,0,0,1.8947,1.8997,1.9002,1.902,1.9056,1.9076,1.91,1.913,1.9144,1.9169,1.919,1.9224,1.9229,1.9246,1.926,1.9273,1.9286,1.9276,1.9277,1.9278,1.9315,1.9312,1.9315,1.9292,1.9293,1.9294,1.9313,0,1.8963,1.9008,1.9029,1.9064,1.9089,1.9106,1.9127,1.9151,1.9168,1.9191,1.9209,1.9234,1.9237,1.9248,1.9262,1.9282,1.9294,1.9281,1.9312,1.9313,1.9306,1.9319,1.9316,1.9333,1.9315,1.9316,1.9316,0,1.8988,1.9015,1.9053,1.9087,1.9098,1.9117,1.9146,1.9167,1.9195,1.9206,1.9226,1.924,1.9264,1.9262,1.9297,1.9287,1.93,1.9312,1.9313,1.9318,1.9316,1.9325,1.9339,1.9342,1.932,1.932,1.932,0,1.8986,1.9031,1.906,1.9074,1.9115,1.9127,1.9144,1.9172,1.9189,1.9214,1.9225,1.9252,1.9267,1.9288,1.9308,1.9304,1.934,1.934,1.935,1.935,1.9358,1.9358,1.9376,1.9365,1.9365,1.9365,1.9365,0,1.9003,1.9025,1.906,1.9078,1.9104,1.9127,1.9152,1.917,1.9194,1.9215,1.923,1.925,1.9274,1.9296,1.9312,1.9338,1.9344,1.9354,1.9358,1.9354,1.9353,1.9364,1.9364,1.9365,1.9365,1.9365,1.9365,0,1.9005,1.9029,1.9062,1.9098,1.9107,1.9125,1.9155,1.9173,1.919,1.9217,1.9224,1.9252,1.9279,1.9301,1.9335,1.9345,1.9373,1.9377,1.9365,1.9367,1.9377,1.9376,1.9404,1.941,1.9393,1.9393,1.9394,0,1.9015,1.9033,1.9071,1.9087,1.9105,1.913,1.9148,1.917,1.9188,1.9221,1.9234,1.9262,1.9286,1.9328,1.935,1.9377,1.9382,1.939,1.9386,1.9381,1.9384,1.9383,1.9385,1.9391,1.9391,1.9391,1.9391,0,1.903,1.9041,1.9067,1.9097,1.9118,1.9142,1.9167,1.9178,1.9205,1.9224,1.9252,1.9271,1.9307,1.9334,1.9363,1.938,1.939,1.9392,1.9396,1.9392,1.9385,1.939,1.9367,1.9391,1.9391,1.9391,1.9391,1.9391,1.9038,1.9055,1.9085,1.9113,1.9134,1.9156,1.9175,1.9195,1.922,1.9252,1.9263,1.9292,1.9319,1.9359,1.9375,1.9397,1.9398,1.9404,1.9406,1.9407,1.9407,1.938,1.9402,1.9402,1.9402,1.9402,1.9403,0,1.9055,1.9075,1.91,1.9135,1.9157,1.9165,1.9192,1.921,1.9236,1.926,1.9283,1.9316,1.9343,1.9367,1.9395,1.9408,1.9414,1.9415,1.9415,1.9419,1.9404,1.9399,1.941,1.941,1.941,1.941,1.941,1.941,1.9066,1.9096,1.9111,1.9151,1.917,1.92,1.9215,1.9236,1.9256,1.9292,1.9315,1.9331,1.9355,1.9385,1.941,1.9416,1.9426,1.9426,1.9434,1.942,1.9419,1.9418,1.9413,1.9428,1.9428,1.9447,1.9447,1.9447]}]]